Theta_e
320 317 320 328 326 324 326 326 326 327 331 331 333 335 337 338 338 340 336 336 333 324 325 336 336 333 332 333 333 333 332 334 330 329 327 329 328 328 328 328 328 328 328 327 327 327 327 326 319
318 318 326 321 328 329 326 323 327 324 328 334 334 337 340 343 337 334 334 334 333 322 327 334 334 331 331 332 334 334 334 334 329 327 328 328 328 328 328 327 327 327 327 327 327 327 326 320 318
317 318 322 327 328 329 325 324 323 329 325 331 334 335 339 340 334 335 336 334 328 324 327 332 331 330 331 332 333 335 333 331 328 328 328 328 328 328 327 327 327 327 327 327 327 326 322 318 316
316 316 315 326 331 327 325 325 326 328 331 330 333 340 336 336 335 336 335 333 326 325 325 329 330 329 331 331 334 334 330 329 329 328 328 327 327 327 327 327 327 327 326 326 325 320 314 313 313
314 314 322 325 325 325 324 324 323 328 332 330 333 339 340 335 336 336 334 332 326 330 326 331 327 331 332 334 333 330 325 325 329 329 328 328 328 328 327 327 327 326 325 324 319 315 315 316 315
314 313 321 328 327 324 322 321 323 326 329 330 336 338 338 331 333 331 333 330 330 334 329 327 328 333 333 332 329 324 322 322 326 327 327 326 328 328 328 326 325 324 323 321 317 317 317 317 317
315 316 322 323 327 325 325 321 323 325 330 330 335 339 336 327 329 331 331 327 334 333 330 329 333 334 332 329 326 324 321 323 325 326 325 327 329 328 327 323 325 325 322 320 319 318 318 318 318
315 315 320 320 328 326 324 324 322 325 329 329 334 339 340 331 328 331 329 328 331 335 331 334 333 331 331 330 328 324 321 322 323 324 323 326 327 326 325 325 324 321 319 319 319 318 318 318 318
317 321 324 324 325 325 323 326 323 322 325 331 333 334 334 329 328 329 330 332 333 337 334 335 334 331 331 331 329 325 321 323 324 324 323 321 321 321 322 322 319 318 318 320 319 317 317 318 320
316 323 324 321 320 323 324 324 324 326 332 336 337 334 330 323 329 330 330 331 331 333 333 332 333 333 332 331 330 326 322 324 325 325 324 324 322 321 321 322 321 321 321 321 319 318 319 321 324
318 320 320 322 320 320 324 325 324 323 328 331 335 335 326 322 328 330 331 330 331 331 331 335 331 331 332 331 329 327 323 325 326 325 324 323 322 322 322 326 326 325 325 323 323 322 322 324 324
316 317 318 319 320 322 326 324 321 322 325 323 331 333 327 323 325 330 331 332 331 331 331 337 333 332 332 331 329 327 324 325 324 322 321 323 321 322 326 327 327 326 325 323 325 325 325 325 325
317 316 318 319 320 318 322 324 324 319 321 330 334 333 331 324 323 328 331 332 332 331 332 336 333 332 332 331 329 327 323 324 324 324 323 324 325 326 326 327 327 327 326 326 326 326 326 326 326
315 317 319 320 325 321 322 326 323 321 329 334 335 334 332 329 323 321 331 332 333 333 334 336 334 333 332 331 329 326 326 326 326 326 325 327 327 327 327 328 327 326 326 327 327 327 327 327 326
315 318 319 321 323 324 322 324 324 324 332 336 335 334 332 331 327 321 326 329 332 333 332 332 333 333 332 331 329 326 328 328 328 325 328 328 329 328 329 328 328 327 326 327 328 328 328 327 327
317 318 321 320 322 325 324 328 323 319 332 336 333 330 332 331 331 326 323 327 330 332 332 332 333 333 331 329 328 330 330 329 329 327 328 330 329 328 328 328 328 327 327 327 328 328 328 327 328
318 319 320 323 321 326 325 326 320 318 327 332 331 331 331 330 330 331 325 325 328 331 332 332 332 332 331 329 329 330 331 329 330 329 330 330 329 328 328 328 327 327 327 327 327 328 328 328 327
320 318 323 325 326 326 325 326 323 319 316 329 330 331 331 330 331 331 332 326 325 326 329 332 332 331 331 330 332 333 333 332 330 330 330 329 329 328 328 327 328 328 328 327 327 327 328 328 328
318 323 324 321 321 325 326 325 324 317 312 322 326 327 331 331 329 330 332 333 333 325 325 327 330 331 331 331 329 330 333 331 331 329 328 328 328 329 330 330 330 330 329 329 328 328 329 329 329
318 323 322 319 320 324 325 327 324 318 313 307 308 316 323 323 326 329 331 332 334 332 324 325 326 328 328 327 326 326 326 326 326 327 328 330 330 329 330 330 331 331 331 330 330 329 329 329 330
313 318 320 321 318 318 323 323 318 316 313 306 306 306 309 312 317 317 326 329 331 331 328 325 325 326 326 327 327 327 327 327 328 328 330 330 331 331 331 331 332 333 332 332 332 331 330 329 329
319 315 317 318 319 322 317 325 314 313 313 306 304 305 306 308 312 313 318 319 320 323 326 329 329 328 326 325 326 327 328 329 329 330 331 331 331 331 332 332 333 333 332 331 331 330 330 330 329
317 315 315 315 314 317 318 320 317 313 313 310 306 304 304 306 308 309 310 311 313 317 320 322 324 328 330 330 329 329 329 331 333 333 333 331 332 330 330 331 332 331 330 328 327 327 326 327 328
312 315 314 314 315 318 319 319 317 316 314 310 307 306 304 307 307 306 306 310 310 311 313 318 320 321 325 327 328 331 332 333 333 332 330 328 326 326 326 327 327 327 326 326 325 324 325 326 325
312 313 316 313 309 316 316 318 317 312 310 307 306 306 306 306 307 307 306 307 308 308 309 311 311 311 312 313 315 320 323 324 325 324 323 323 323 319 319 321 322 323 323 322 321 321 324 324 324
312 312 312 313 317 316 314 318 315 308 308 307 306 306 305 305 306 307 306 307 307 307 308 308 309 310 310 310 311 311 312 314 315 315 314 314 313 315 317 318 319 318 317 318 319 320 320 320 319
311 312 311 312 304 312 310 307 309 309 307 305 305 306 306 305 305 306 307 307 307 307 307 308 308 308 309 309 310 310 311 311 311 312 312 313 314 315 316 316 316 316 316 316 316 317 317 317 316
310 308 310 308 309 313 311 307 309 308 307 306 305 304 304 304 305 305 305 307 307 306 306 306 306 306 307 308 309 310 311 312 312 313 313 312 312 312 313 314 315 315 315 314 314 314 314 313 313
308 309 309 309 311 313 314 309 304 307 306 305 304 304 303 302 301 303 305 307 307 306 305 305 305 305 304 304 305 306 307 309 310 311 311 311 311 312 312 312 312 312 312 312 311 310 309 308 307
309 310 309 307 308 309 308 310 305 306 306 304 303 303 302 302 301 301 302 304 305 306 305 305 304 304 303 303 303 303 303 304 306 307 308 308 309 309 309 308 308 307 306 305 305 304 303 303 302
Wind_Speed
12 11 2 3 2 4 4 6 3 6 3 2 2 4 8 4 5 4 8 14 36 36 36 29 28 25 23 22 20 18 17 15 13 11 10 12 12 12 12 12 11 10 10 10 9 9 8 8 8
9 4 3 2 3 2 5 4 7 8 5 7 5 3 3 3 3 6 15 18 37 37 36 32 28 24 24 22 21 20 17 15 12 11 12 13 13 12 12 11 11 10 9 8 7 7 7 7 6
4 1 3 3 3 7 5 6 8 5 5 6 4 4 2 5 1 17 4 32 37 37 35 33 29 26 25 23 22 21 16 15 13 14 14 13 13 12 11 10 10 9 8 7 6 5 4 4 3
3 3 3 4 11 6 8 5 3 5 2 2 4 6 2 4 10 15 25 34 38 36 33 32 29 28 26 24 23 19 15 14 14 15 14 13 12 11 11 10 9 8 7 6 5 3 3 2 2
1 2 3 4 9 5 6 7 3 5 3 3 5 5 1 2 9 21 33 34 37 34 34 31 29 28 26 25 22 18 15 13 15 15 13 12 11 10 10 9 8 7 6 4 3 1 1 2 3
2 2 3 10 12 5 6 8 4 5 6 5 5 6 4 10 24 28 35 36 31 31 34 31 30 28 26 24 21 18 15 14 16 16 15 12 11 10 9 9 8 6 4 3 2 1 2 3 3
3 4 8 5 16 8 10 6 5 8 4 6 9 6 1 6 21 33 34 36 30 30 34 31 29 28 25 22 21 18 16 15 15 15 14 14 15 11 9 7 6 4 3 4 3 4 4 5 5
2 3 5 7 15 14 5 6 4 9 9 2 6 8 5 8 27 32 32 34 34 28 32 29 30 28 25 23 20 17 16 15 15 14 13 15 14 12 10 8 7 6 5 5 5 6 6 6 7
3 4 14 20 18 7 4 5 3 1 7 2 4 6 4 33 31 29 27 27 30 28 26 25 29 29 26 23 20 17 15 15 14 13 12 12 13 12 11 10 8 7 7 6 7 7 7 8 8
6 8 16 4 6 6 4 2 1 1 3 2 2 2 25 33 31 26 25 26 26 28 27 26 27 29 26 24 21 19 17 16 15 15 14 13 12 11 10 8 8 7 6 8 9 9 9 9 8
4 13 8 9 8 7 3 4 3 4 5 7 11 12 17 26 24 24 24 28 31 28 25 30 34 31 29 27 24 21 19 17 16 15 15 14 12 11 12 10 9 9 9 9 9 8 8 8 9
6 9 13 13 6 4 3 2 3 7 10 6 6 23 20 19 19 26 25 27 28 29 29 29 36 34 32 29 25 22 20 18 17 14 14 14 13 12 12 12 11 10 10 10 10 9 8 9 8
8 5 7 12 8 9 3 7 5 7 5 6 15 15 19 18 19 20 23 25 24 27 27 29 36 35 33 30 27 24 22 20 17 15 14 14 14 13 12 10 11 11 11 11 11 11 10 10 10
4 7 8 9 14 10 1 4 4 8 5 8 17 17 14 17 17 16 21 25 25 25 26 29 36 34 32 31 28 25 23 21 19 18 16 15 15 14 15 14 14 14 12 12 13 12 12 12 11
10 9 6 10 10 8 6 3 5 5 5 11 11 10 10 11 17 20 26 26 33 32 32 33 36 34 33 31 27 26 24 21 19 19 17 16 16 17 17 16 16 16 14 14 14 14 14 13 12
7 4 10 12 11 5 3 8 2 7 3 12 10 7 7 7 10 18 23 24 29 31 32 33 34 34 31 29 27 25 23 22 21 17 17 17 18 17 18 19 19 16 15 15 15 14 15 14 13
9 9 12 11 19 7 5 4 9 13 6 5 6 8 7 5 6 16 23 26 29 32 32 33 33 33 32 30 27 25 23 23 21 19 19 19 19 17 18 19 20 18 18 18 17 17 16 15 16
3 10 14 11 5 6 5 7 14 17 11 7 6 5 5 6 13 16 19 23 28 29 31 32 33 34 33 31 28 26 24 23 21 21 21 18 18 18 19 20 19 18 19 19 18 18 17 19 18
6 13 8 5 3 2 8 12 7 14 13 5 4 5 5 4 5 11 17 20 18 25 27 31 32 33 31 29 27 27 29 28 28 23 19 18 19 18 17 18 18 18 20 20 19 18 18 21 17
9 11 6 8 7 3 7 6 4 9 8 9 11 8 5 4 5 4 7 14 20 17 25 29 30 31 30 28 26 26 26 23 23 22 21 19 17 17 19 19 20 20 21 21 21 20 20 21 19
5 4 3 5 6 13 6 4 6 7 10 9 9 5 7 6 6 8 8 5 8 10 16 24 28 28 29 28 26 23 21 20 16 21 19 18 18 19 20 21 21 21 21 22 22 21 22 17 15
5 11 4 9 3 4 4 2 2 7 15 9 11 11 9 8 7 8 9 11 8 6 5 6 14 17 19 22 23 23 20 19 23 20 17 16 15 15 16 17 18 17 18 19 19 19 19 17 18
3 8 5 2 6 5 5 4 2 3 6 12 12 9 8 8 6 9 10 12 8 5 6 7 5 5 8 15 17 19 22 20 19 15 16 14 14 14 15 16 15 13 12 14 15 14 14 14 13
7 5 5 3 2 3 2 2 2 1 1 9 10 8 8 8 8 7 6 9 9 6 5 3 1 2 3 6 10 15 22 22 19 14 12 10 10 9 9 9 10 11 13 12 11 11 9 9 9
7 6 3 4 4 2 2 3 0 2 5 6 7 8 8 6 6 5 6 8 5 5 6 5 4 2 3 5 7 9 11 12 12 11 11 10 11 10 9 9 9 9 9 9 12 7 7 6 4
2 3 2 2 1 1 4 2 2 5 6 5 7 5 7 7 5 6 8 11 11 11 9 4 2 3 2 3 4 4 6 6 6 7 7 7 7 7 5 4 4 4 6 4 3 4 4 4 4
4 3 3 4 2 3 3 2 3 5 3 4 6 7 9 7 8 8 9 11 12 11 10 8 5 2 0 1 2 1 1 1 2 2 3 3 4 4 3 3 3 2 1 0 1 3 3 2 1
1 2 3 3 2 3 3 3 2 1 4 5 6 7 7 7 8 7 9 11 10 10 10 9 7 5 4 3 2 1 2 2 2 2 3 3 3 3 3 3 3 3 2 1 1 1 2 2 2
5 3 4 4 3 2 3 2 3 2 4 5 6 6 6 7 8 8 13 15 12 10 9 8 7 6 5 3 3 2 1 1 3 4 5 5 5 4 4 3 3 3 3 2 2 3 3 3 4
2 1 2 3 4 2 2 0 4 4 3 4 6 7 7 7 7 8 14 16 15 13 11 9 8 7 6 4 2 1 2 0 2 3 4 4 4 5 4 3 3 3 2 3 3 3 4 5 6
Wind_Direction
328 341 327 28 52 64 252 245 261 284 279 254 348 138 165 124 166 202 151 163 163 164 167 165 166 164 160 160 162 158 149 141 142 145 148 139 136 136 136 133 130 128 116 110 105 103 101 98 99
326 358 68 79 114 190 260 242 238 237 220 126 93 14 82 146 114 116 138 170 164 164 167 167 168 168 164 168 164 158 157 149 151 151 142 141 141 141 142 140 137 134 128 121 113 105 99 100 98
308 161 105 142 186 211 230 212 221 250 197 160 102 57 157 170 52 152 197 163 164 164 168 170 173 170 170 171 165 162 163 155 155 149 148 147 148 147 147 146 144 139 136 133 128 120 109 97 85
211 54 23 143 238 255 217 236 269 325 92 176 123 102 347 270 163 170 158 165 165 165 169 172 173 170 173 174 169 170 169 161 153 152 151 151 152 154 153 151 150 148 147 144 135 128 109 79 45
280 70 184 225 243 241 253 253 241 266 281 192 156 185 126 21 161 159 157 164 162 163 167 170 172 174 172 170 172 175 173 169 159 157 158 163 163 158 160 160 160 158 156 155 150 125 47 14 3
245 120 181 217 241 224 245 244 221 230 208 172 99 132 158 146 148 157 160 163 164 162 166 168 171 174 175 175 176 177 176 173 166 165 172 172 172 177 166 169 169 163 176 188 210 275 318 325 336
207 163 216 186 234 254 243 210 216 227 218 204 149 129 133 167 159 158 162 166 164 167 167 168 171 177 177 179 178 179 178 175 173 179 180 171 170 176 176 173 179 206 220 228 261 291 307 313 320
234 184 196 211 220 251 210 189 247 179 213 101 151 167 194 184 160 160 164 168 167 166 171 170 176 179 182 181 182 181 181 182 182 187 188 188 185 194 202 212 225 236 245 259 274 287 297 306 311
285 239 228 221 205 213 179 192 277 34 133 316 147 155 184 154 158 150 152 157 165 169 172 175 180 182 184 184 184 187 188 190 191 193 193 191 204 211 217 227 234 242 253 269 281 288 296 301 304
193 232 240 254 244 215 202 183 223 203 153 247 104 55 136 148 156 154 162 166 173 175 179 179 182 186 187 188 190 192 193 194 197 201 204 207 212 216 220 228 230 238 257 273 278 283 290 292 303
228 239 277 283 250 245 244 255 199 164 258 211 187 156 149 155 166 165 169 176 174 178 183 183 188 189 189 192 196 196 198 200 203 209 214 217 219 223 226 234 238 249 262 274 283 282 289 293 294
275 242 262 280 319 274 224 285 216 187 224 225 177 163 154 166 175 174 174 174 175 183 186 189 192 190 193 196 198 202 204 206 208 210 212 217 222 227 232 249 248 258 269 271 277 288 287 291 293
240 239 257 280 297 290 287 261 233 232 283 126 132 161 169 175 178 182 174 169 179 183 185 191 195 195 196 199 202 206 209 213 216 216 217 220 224 230 237 249 247 263 269 274 280 284 290 294 298
309 227 245 264 304 311 298 235 332 251 159 143 154 171 178 179 174 163 174 174 180 185 186 191 199 200 201 205 209 212 213 215 218 223 221 223 228 234 243 252 258 265 267 271 276 280 284 288 291
237 290 247 217 257 254 301 304 241 297 154 157 168 174 178 180 172 185 181 184 183 190 196 197 200 205 206 210 216 218 218 220 223 223 225 230 239 243 248 255 261 263 266 269 270 274 277 280 286
199 219 244 220 233 259 260 214 346 353 247 171 169 158 180 181 187 188 187 187 191 192 196 198 200 206 211 214 215 220 225 226 229 232 233 241 244 248 250 255 263 268 268 270 268 273 275 276 285
203 215 227 197 192 231 231 130 295 16 246 175 181 174 180 187 198 194 192 190 195 201 202 202 203 207 211 216 218 223 229 229 233 238 241 244 243 249 253 258 265 268 266 267 268 271 271 271 275
213 224 212 176 149 190 173 126 292 358 322 237 167 186 191 203 215 204 194 197 200 204 208 208 208 212 213 217 223 227 228 234 239 240 241 243 245 251 258 263 266 266 266 264 262 265 266 266 272
272 251 142 71 62 113 176 137 356 355 3 39 120 237 212 262 326 240 210 202 194 209 213 214 213 215 217 220 225 226 231 237 240 245 242 242 256 260 261 267 270 272 267 267 266 266 267 272 272
269 121 105 77 79 81 147 182 351 359 333 28 22 13 35 5 6 333 234 210 206 205 216 218 220 222 221 223 220 221 226 236 237 242 251 252 254 258 260 262 264 262 265 266 265 261 263 266 265
3 23 76 110 90 47 81 64 15 320 344 31 40 325 50 36 30 21 31 124 200 208 214 218 223 227 229 226 226 225 231 234 234 243 252 253 260 261 264 264 266 266 265 266 269 265 262 254 263
20 339 90 117 52 125 0 134 48 356 323 351 21 7 20 31 25 35 30 42 65 91 123 189 218 225 229 231 232 228 222 217 232 242 247 254 256 263 264 269 264 267 270 272 273 277 271 267 259
5 322 20 121 100 122 16 87 344 27 306 349 348 358 12 23 38 35 17 38 38 63 91 102 114 177 214 229 234 236 236 241 241 241 245 242 255 265 257 255 256 259 268 280 282 282 285 279 269
322 336 46 44 76 65 77 106 312 109 291 320 324 347 18 23 32 50 60 44 30 36 62 63 318 296 261 252 238 235 241 246 243 228 221 229 240 252 260 258 264 264 266 264 267 271 279 274 266
30 23 15 10 31 120 85 62 335 294 296 281 287 339 355 28 28 35 55 56 41 27 40 69 112 182 221 231 238 227 226 217 214 220 227 239 254 257 256 259 259 263 267 263 272 273 274 265 260
351 93 124 199 39 67 355 73 87 188 213 273 322 355 6 20 19 20 29 31 27 22 25 40 121 166 172 195 221 223 223 225 229 232 236 242 242 239 242 248 246 267 278 277 270 264 268 277 264
317 50 172 104 25 60 343 33 42 293 275 10 13 25 24 6 3 7 19 30 25 20 17 15 9 12 51 173 176 173 144 181 194 198 198 198 194 205 212 224 219 206 90 26 259 241 234 219 219
43 231 41 20 55 67 16 24 130 59 40 25 20 28 20 4 10 10 13 18 15 12 7 11 8 1 5 8 29 56 105 115 104 126 131 151 160 159 157 157 153 139 128 131 122 115 133 152 139
350 22 56 114 110 132 124 328 225 106 22 34 28 29 29 21 10 2 3 8 6 3 0 358 0 349 346 354 20 32 32 132 146 154 147 156 156 154 153 151 149 157 148 170 197 169 168 159 143
262 88 96 101 335 36 80 299 87 44 344 36 37 29 33 38 25 17 18 20 13 3 356 351 346 331 324 322 322 329 320 212 180 164 159 161 161 168 164 156 149 119 124 141 141 141 135 138 131